Wind_Speed
26 27 27 26 25 26 26 25 27 25 23 22 22 22 22 21 21 22 23 23 23 23 23 24 24 23 24 24 24 23 23 22 22 21 20 19 19 18 17 17 16 15 16 16 14 13 12 11 11 11 11 12 12 12 13 13 13 13 13 13 13 13 13 14 14 15 15 16 17 18 19 20 20 20 20 20 21 22 23 23 24 24 24 24 23
26 26 25 25 27 27 26 27 26 25 23 22 21 22 21 20 21 23 23 23 23 23 23 23 23 22 23 23 23 22 22 21 21 20 19 18 17 17 16 16 15 14 14 14 12 11 11 10 10 10 10 11 11 11 12 12 12 11 12 11 11 11 12 13 14 14 15 16 17 18 20 21 20 20 19 19 21 22 22 22 23 23 24 24 23
26 25 25 27 27 26 25 25 24 23 22 21 21 22 22 21 22 23 23 23 23 22 22 22 22 22 22 21 21 21 20 20 20 19 18 17 16 16 15 15 13 12 13 12 12 12 11 11 10 10 10 10 10 10 11 11 10 10 10 10 10 11 11 12 13 13 14 14 16 17 19 21 20 20 20 20 20 20 20 20 21 22 23 23 23
27 26 27 27 26 25 24 24 23 21 20 20 21 22 22 22 22 22 22 22 21 21 21 21 21 21 20 20 19 19 19 20 19 18 17 16 15 14 13 12 11 11 11 11 11 11 11 11 10 10 10 10 10 10 10 9 9 9 9 9 10 10 11 12 12 13 13 14 14 15 18 20 18 18 19 19 20 20 19 19 21 21 22 22 22
26 26 26 26 24 24 23 22 22 20 20 20 21 23 22 21 21 21 20 20 20 20 20 20 19 19 19 19 19 19 20 19 18 17 15 13 12 11 10 10 10 10 10 9 9 9 9 10 9 9 9 9 9 9 9 9 9 9 9 9 9 10 10 11 11 12 12 13 14 15 18 18 16 17 17 17 19 19 19 20 20 21 21 22 22
26 25 24 24 23 22 22 20 20 20 20 21 22 22 21 20 19 19 19 19 19 19 18 18 18 18 18 18 19 19 19 18 16 14 12 11 10 10 9 9 8 8 8 8 7 7 8 8 8 8 8 8 7 7 8 8 9 9 9 9 9 9 10 10 10 11 11 12 13 14 16 16 15 15 15 16 17 17 18 18 19 20 21 21 21
24 23 22 22 22 21 20 18 18 19 20 21 21 20 19 18 18 19 19 19 18 17 17 17 17 17 17 18 18 18 17 15 13 12 11 10 9 8 8 7 7 7 7 7 7 6 7 7 7 7 7 7 7 7 7 8 8 8 8 9 9 9 9 9 10 10 11 12 12 13 15 14 14 14 14 14 15 15 15 15 17 18 19 20 21
22 21 21 21 21 20 18 17 17 19 20 22 22 19 18 18 18 18 18 17 17 17 17 17 17 17 17 17 16 15 14 12 11 10 9 8 7 7 6 6 6 6 6 6 6 6 6 6 6 6 6 6 7 7 7 7 8 8 8 8 9 9 9 9 10 10 11 11 11 12 13 12 12 13 12 12 13 12 12 13 14 15 16 18 19
22 21 21 20 20 19 17 17 18 18 19 20 20 19 18 17 16 16 15 15 16 17 17 17 16 16 15 15 14 12 11 10 9 8 8 7 6 6 6 6 6 6 6 6 6 6 6 6 6 6 6 7 7 7 7 7 7 7 8 8 9 9 9 9 10 11 11 11 11 11 11 11 10 10 10 11 11 11 11 11 12 13 14 15 17
21 20 20 21 20 19 18 17 17 16 16 17 18 18 17 15 15 15 15 15 16 16 16 16 15 14 13 12 10 9 8 8 8 7 7 7 7 7 7 6 6 6 6 6 6 6 6 7 7 7 8 8 8 9 9 8 7 7 7 8 8 9 9 10 10 11 11 11 11 10 10 9 9 8 8 9 10 10 10 10 11 12 12 13 15
21 20 21 21 20 19 17 17 16 15 15 15 16 16 15 13 14 14 15 15 15 15 14 13 12 11 10 9 8 7 6 6 7 7 7 7 7 7 6 6 6 6 6 6 7 7 8 8 9 9 10 9 10 10 10 9 8 8 7 7 7 8 9 9 10 10 11 11 10 9 9 9 8 8 8 8 9 10 10 10 11 12 13 13 12
21 21 21 20 19 18 17 16 15 14 14 14 14 14 13 13 14 14 15 14 14 13 12 11 10 9 8 7 6 6 6 6 6 6 6 6 6 6 6 6 6 6 7 7 8 9 9 10 10 11 11 10 9 9 9 9 9 9 8 8 8 8 8 9 9 9 10 9 8 8 9 9 9 9 8 8 9 10 10 10 11 12 13 13 11
20 19 20 19 19 18 16 15 13 13 13 13 13 14 13 13 14 14 14 14 13 11 10 9 8 7 6 6 5 5 5 5 5 5 5 5 5 5 5 6 7 7 8 9 9 10 10 11 11 11 10 9 8 7 7 8 8 8 8 8 8 8 8 9 9 10 11 8 7 8 8 9 9 9 9 8 9 10 11 11 11 11 11 11 10
19 19 20 19 18 17 16 14 13 13 13 13 13 14 14 13 13 13 12 12 12 9 7 7 6 5 5 4 4 4 4 4 4 5 5 5 5 6 6 7 8 9 10 10 11 11 12 12 11 9 8 7 7 7 6 6 7 7 7 7 7 7 8 8 8 9 13 10 7 8 7 8 8 8 9 8 8 9 10 10 10 10 10 9 9
20 21 20 19 18 17 15 13 12 13 13 13 13 13 13 13 12 11 11 10 10 7 5 5 4 4 4 3 3 4 4 4 4 5 5 6 6 7 8 8 9 10 11 11 11 11 12 12 10 8 7 7 7 7 6 6 6 7 6 6 5 6 6 6 6 7 12 12 8 8 8 8 8 8 8 8 8 9 9 9 8 9 8 8 7
21 21 19 18 17 17 15 12 12 11 11 11 11 12 12 12 11 10 10 9 8 5 4 4 4 4 3 4 4 5 4 4 5 5 6 7 7 8 9 10 11 11 12 12 11 11 11 10 9 7 6 6 6 6 6 6 6 6 6 6 5 5 6 6 6 5 8 10 8 7 8 8 8 8 8 7 7 7 8 7 7 6 6 7 7
21 20 18 17 16 16 13 11 10 9 9 10 10 10 10 9 9 9 8 7 6 5 4 4 5 5 5 5 5 5 5 5 5 6 7 8 9 10 11 11 12 12 12 11 11 10 9 8 7 6 6 6 6 6 6 6 6 6 6 6 6 6 6 6 6 5 5 7 6 6 6 6 5 5 4 4 4 4 5 5 6 6 7 8 8
20 19 18 16 15 14 11 9 9 9 9 9 9 9 7 7 7 6 5 5 4 5 5 5 6 6 5 5 5 5 5 5 6 7 8 9 10 11 12 12 12 12 11 11 10 10 9 8 6 5 5 6 6 6 6 6 6 5 5 5 5 6 6 6 6 6 6 6 7 6 5 4 4 3 3 4 4 4 4 5 5 6 7 7 8
19 18 17 15 13 11 9 9 9 9 8 8 8 7 6 6 5 4 3 4 5 6 6 6 6 6 6 6 6 6 6 7 8 9 10 10 11 12 12 12 11 11 11 11 11 11 10 9 7 6 5 5 5 5 5 5 5 5 4 4 5 5 5 5 6 6 6 6 7 7 6 5 5 4 4 4 4 4 4 5 5 5 6 6 7
17 16 15 14 10 8 8 9 8 7 7 7 7 6 5 5 4 3 4 5 6 7 6 6 6 6 7 7 7 7 8 8 9 10 10 10 11 11 10 11 11 11 11 11 11 11 10 9 8 7 6 6 5 5 5 4 3 4 4 4 4 4 4 4 5 5 5 5 6 6 6 5 5 4 4 4 4 4 4 4 5 5 5 6 6
15 15 14 11 8 7 8 7 6 6 6 6 5 4 4 3 2 4 5 5 6 6 6 6 7 7 8 9 9 10 10 10 10 10 10 10 10 10 10 11 11 11 11 11 11 11 10 10 9 8 8 7 7 6 5 4 3 3 4 4 4 4 3 3 3 4 4 4 4 5 5 4 4 4 4 4 4 4 4 4 4 4 5 5 6
13 13 11 9 7 7 7 7 6 5 4 4 3 2 1 1 3 4 5 5 6 5 6 7 8 9 9 10 11 11 11 10 10 9 9 9 9 10 10 11 12 12 11 11 11 11 11 11 10 9 8 8 8 8 6 4 4 4 4 4 4 5 4 3 2 3 3 3 3 3 3 3 3 4 4 4 4 5 5 5 5 6 6 6 7
12 11 9 8 7 6 7 6 5 4 3 3 1 1 2 4 4 4 4 5 5 6 7 8 9 9 10 10 11 11 11 10 9 9 9 9 10 10 11 11 12 12 11 11 11 11 11 11 11 10 9 9 9 9 8 6 6 6 5 5 5 6 5 4 3 3 3 3 3 3 4 4 4 4 4 5 5 5 6 7 8 8 9 9 10
10 9 9 9 6 5 6 5 3 2 1 1 1 2 4 5 4 4 4 5 6 6 8 9 9 10 11 12 12 12 11 11 10 9 9 10 10 11 11 11 12 12 11 11 11 11 11 11 11 10 10 9 8 9 9 8 8 8 8 7 7 7 7 6 4 4 4 5 5 5 5 6 6 6 7 7 8 8 8 9 10 11 12 12 13
9 8 8 8 6 5 4 3 1 1 0 2 3 4 5 5 4 3 4 5 6 7 8 9 10 11 12 12 12 12 12 11 11 10 10 10 11 11 12 12 12 12 12 11 11 11 10 10 10 10 10 9 9 8 8 9 9 10 10 10 9 9 9 9 7 6 6 7 7 7 7 8 8 9 9 10 10 11 11 12 12 13 13 14 14
8 7 7 7 5 4 3 1 1 0 1 3 5 6 6 4 3 3 5 5 7 8 9 10 11 12 13 13 12 12 12 11 11 11 11 11 11 11 12 12 12 12 12 12 11 11 11 10 10 10 9 9 8 8 7 8 9 10 12 12 12 11 12 12 11 9 9 9 10 10 10 10 10 11 11 12 12 13 14 14 15 15 16 16 17
7 6 5 5 5 4 2 1 1 1 3 5 6 7 6 4 3 3 5 6 8 10 11 12 13 13 13 12 12 11 11 12 12 12 12 12 11 11 11 11 11 11 11 12 12 11 11 10 10 9 9 8 7 7 6 6 7 9 11 12 12 13 14 14 13 12 12 12 12 12 12 12 13 13 14 14 15 15 16 17 17 18 19 19 20
6 4 4 5 5 3 2 1 0 3 4 6 7 7 5 3 2 3 5 7 9 10 12 13 13 14 13 12 11 11 12 12 12 12 12 12 12 11 11 11 11 11 11 11 11 11 10 9 9 8 8 7 7 6 5 5 6 7 8 9 11 13 14 16 16 15 14 14 13 13 14 14 15 16 16 17 18 18 19 19 20 20 21 21 22
4 3 3 4 4 3 2 1 2 4 5 6 7 6 5 3 1 3 5 7 9 10 11 12 13 13 13 12 12 12 12 12 12 12 12 11 11 11 11 11 11 11 11 11 10 9 9 8 8 7 7 6 6 5 5 4 5 6 6 7 7 9 11 13 15 15 15 15 15 15 15 16 17 18 19 19 20 21 21 21 21 21 21 21 21
3 3 4 4 3 2 1 1 3 4 5 7 7 6 4 2 1 3 5 7 9 10 12 12 13 12 12 12 12 12 12 12 12 12 11 11 11 10 10 11 11 11 11 10 9 9 9 8 8 7 7 6 6 6 5 5 4 4 5 6 6 7 8 9 10 11 12 12 13 13 14 15 16 17 18 18 19 19 19 19 18 18 18 18 17
3 3 4 4 3 2 1 1 2 4 5 7 7 6 4 1 1 4 6 8 10 11 13 13 12 12 12 12 12 12 12 13 12 12 11 11 10 10 10 11 11 10 10 9 9 8 8 8 7 7 7 7 7 7 6 6 5 4 4 4 5 5 6 6 7 8 8 8 9 9 10 11 11 13 14 14 15 15 15 15 15 15 15 15 15
3 3 4 4 3 2 1 1 2 4 6 8 7 6 3 2 3 5 7 9 11 12 13 13 12 12 11 12 12 13 13 13 12 11 11 10 10 10 10 10 10 9 9 8 8 7 7 7 7 7 7 7 7 7 7 7 6 6 5 4 4 4 4 5 5 6 6 7 7 7 7 8 8 9 11 12 13 13 14 14 14 14 14 14 14
3 3 4 4 4 4 2 2 3 5 7 8 7 5 4 3 4 6 8 10 12 13 13 13 12 11 11 12 13 13 13 12 12 10 10 9 9 10 10 9 8 7 7 7 7 7 6 7 7 7 7 7 7 7 7 6 6 6 6 5 5 5 5 5 5 6 6 7 7 8 8 8 9 9 10 11 12 13 13 14 14 14 14 14 13
4 4 4 5 5 4 3 3 5 7 8 8 7 6 4 4 5 7 9 11 13 14 13 12 12 12 12 13 13 13 12 11 10 10 9 9 9 9 8 8 7 6 6 6 6 6 6 7 7 7 7 7 7 7 6 6 6 6 6 6 6 6 6 6 6 6 7 7 8 8 9 9 9 9 10 11 11 12 13 13 14 14 14 14 14
5 4 4 5 5 5 4 4 6 8 8 8 7 6 5 5 6 8 10 12 13 13 13 12 12 12 13 13 13 12 11 10 9 9 8 8 8 8 7 7 6 6 6 6 6 7 7 7 7 7 7 7 7 6 6 6 6 6 6 6 6 6 6 6 6 6 7 7 7 8 8 8 8 8 9 10 11 12 12 13 14 14 15 15 15
5 5 5 4 5 5 4 4 7 8 9 8 7 6 6 6 7 9 11 12 13 12 12 12 12 12 13 12 12 11 10 9 9 8 8 7 7 6 6 6 5 5 5 6 6 6 6 7 7 7 7 6 6 6 6 6 6 6 6 6 6 6 6 6 6 6 6 7 7 8 8 9 9 10 10 11 12 12 13 14 15 15 16 16 17
5 6 5 5 5 5 5 5 8 9 9 8 7 6 6 7 9 10 11 12 12 11 11 12 12 12 12 11 10 9 9 8 8 7 7 6 6 6 5 5 5 5 5 5 5 5 6 6 6 6 6 6 6 6 6 6 6 7 7 7 7 7 7 8 8 8 8 9 9 9 10 10 11 11 11 12 13 13 14 15 16 16 17 18 19
6 6 6 5 6 6 6 7 8 9 9 8 7 6 7 9 10 11 12 12 11 10 11 11 11 11 10 10 9 8 8 7 7 7 6 5 5 5 5 4 4 4 4 5 5 5 6 6 6 6 7 7 7 7 7 8 8 8 9 9 9 9 9 9 9 9 9 9 9 9 10 10 11 12 12 13 14 15 16 17 18 19 20 21 23
5 6 6 6 6 7 7 8 9 10 9 8 7 7 9 10 10 11 11 11 10 10 11 11 10 10 9 9 8 7 7 7 6 6 5 5 4 4 4 3 3 4 4 5 6 7 8 8 8 8 8 9 9 9 9 10 9 10 10 10 9 9 9 9 9 9 9 9 9 10 11 11 12 13 14 16 17 18 19 20 21 22 23 24 25
5 5 5 6 7 8 8 9 10 10 9 8 8 9 10 10 10 11 11 10 9 10 10 10 10 9 9 8 7 7 6 5 5 5 4 4 4 4 3 4 4 5 6 7 8 9 9 9 9 10 10 10 10 10 10 10 10 9 9 9 9 8 8 9 9 10 10 11 11 12 13 14 15 16 17 18 19 20 21 22 23 23 24 25 27
4 4 4 5 6 8 9 10 10 10 9 9 9 9 10 10 10 11 10 9 9 9 9 9 8 8 8 7 6 6 5 4 4 4 4 4 3 4 5 6 7 8 9 9 9 9 9 9 10 10 10 10 10 10 9 9 9 9 8 8 8 8 9 9 10 11 11 12 13 14 15 16 17 18 19 19 20 22 22 23 24 25 26 27 28
5 4 4 4 6 8 9 10 10 10 9 9 9 9 9 10 10 10 8 8 9 8 8 7 7 7 7 6 5 4 4 4 4 3 3 4 5 6 7 8 8 9 10 10 9 9 9 9 9 9 9 9 9 9 9 9 9 9 9 9 9 9 10 10 11 12 12 13 14 15 16 17 18 19 20 21 22 23 24 25 26 26 27 28 29
5 5 4 4 6 8 9 10 10 10 10 9 9 9 9 10 9 8 8 8 7 7 6 6 6 6 5 4 4 3 4 4 4 4 5 7 8 9 10 10 10 10 10 10 9 9 9 9 9 9 9 9 9 9 9 9 9 9 10 10 10 10 11 11 12 12 13 14 15 16 17 18 19 20 21 22 23 24 25 26 27 27 28 29 30
5 5 4 4 6 8 9 10 10 10 10 9 9 9 9 9 8 7 7 7 6 5 5 5 5 5 4 3 3 4 5 5 6 6 8 9 11 12 11 11 11 10 10 9 9 9 8 8 8 8 8 8 9 9 9 10 10 10 10 10 10 11 11 12 12 13 13 14 16 17 18 19 20 21 22 23 24 25 26 27 28 29 30 30 31
6 5 5 5 6 8 9 9 10 10 10 10 9 9 9 8 7 6 6 5 5 5 4 4 4 3 2 3 4 5 6 7 8 9 10 11 12 12 11 11 10 10 9 9 8 8 8 8 8 8 9 9 9 9 9 9 9 10 10 11 11 12 13 13 14 14 15 16 17 18 19 20 21 22 22 23 25 26 27 28 29 30 30 31 32
7 5 6 6 6 7 8 9 9 9 10 10 9 8 8 6 6 5 5 4 4 4 4 3 2 1 3 5 6 7 8 8 9 9 10 11 11 11 10 10 9 9 9 8 8 8 9 9 9 9 9 9 9 9 9 9 10 11 11 12 13 13 14 15 15 16 16 17 18 19 20 20 21 22 23 24 25 26 27 28 29 30 30 31 32
8 6 7 7 7 7 8 8 9 9 9 9 8 8 7 5 5 5 4 4 4 4 3 2 1 3 5 7 7 8 8 8 9 9 10 10 10 10 10 9 9 8 8 8 8 9 9 9 9 9 9 9 9 9 10 11 11 12 13 13 14 15 15 16 16 17 17 17 18 19 20 21 23 23 24 25 26 27 28 28 29 29 30 31 32
9 8 8 8 8 8 9 8 9 9 8 8 8 7 6 5 4 4 3 3 3 3 2 0 3 5 6 7 7 7 7 8 8 9 9 10 10 10 9 9 8 8 8 7 8 8 8 8 8 9 9 10 11 11 12 12 13 14 14 15 15 15 16 16 16 16 16 17 18 18 20 21 23 24 25 26 26 27 28 29 29 30 31 32 33
10 9 9 9 10 9 9 9 8 8 8 8 8 7 5 4 4 3 2 2 3 2 1 2 4 6 7 7 7 7 7 8 8 9 9 9 10 9 9 8 8 7 7 7 7 7 8 8 8 8 9 10 11 12 12 13 14 14 14 15 15 15 15 16 17 17 17 18 18 18 19 19 21 23 24 25 26 27 28 29 30 31 32 33 34
10 10 10 10 10 10 10 9 9 8 8 8 8 6 5 4 3 2 2 2 2 2 2 3 5 6 7 7 6 6 7 7 8 9 9 9 9 8 8 8 8 8 8 8 9 9 9 9 9 9 10 11 11 12 13 14 14 14 15 15 16 16 17 17 18 18 19 19 19 19 20 20 21 23 24 25 26 27 28 30 31 32 33 35 37
11 11 11 11 11 11 10 10 9 9 9 8 7 6 5 5 3 2 2 2 2 2 3 5 5 6 7 7 6 6 7 7 8 8 8 8 8 8 8 8 8 8 9 9 10 10 11 11 11 11 11 12 12 13 14 15 15 16 16 17 17 18 18 19 19 19 19 20 21 22 22 23 24 25 26 27 28 29 30 31 32 34 36 37 39
Wind_Direction
314 315 309 303 302 300 298 293 292 291 291 293 292 297 298 295 292 288 285 283 284 284 283 284 285 285 285 288 290 291 292 295 298 300 301 302 301 300 299 298 296 295 293 292 295 297 298 299 299 298 296 293 291 290 289 288 287 286 284 282 280 279 279 279 278 277 276 274 273 271 268 266 265 265 265 264 263 262 260 258 257 256 256 257 257
312 312 305 300 300 298 295 291 291 291 291 291 290 292 291 289 285 285 285 285 284 283 285 286 287 287 287 288 290 291 293 296 298 300 300 300 299 298 297 295 294 294 294 295 300 302 302 302 302 301 299 297 298 298 296 294 290 285 282 279 279 279 278 279 279 279 279 278 276 274 272 271 270 270 269 268 266 263 262 261 261 260 258 257 256
310 308 300 297 298 296 293 290 291 292 292 290 288 287 286 286 282 284 286 287 287 286 287 288 289 288 288 289 290 293 295 297 299 299 298 298 297 295 294 294 296 298 298 300 302 304 306 306 305 304 304 306 307 306 304 299 293 286 282 281 281 281 281 280 281 282 281 281 280 279 277 273 271 273 272 271 271 270 270 272 272 270 268 265 261
308 305 300 298 297 295 293 292 293 293 292 290 287 285 285 285 284 285 286 287 287 287 287 288 290 290 291 293 294 297 297 298 298 298 297 296 295 294 294 295 300 301 302 304 305 308 310 310 311 312 313 313 311 310 307 301 294 288 285 284 284 284 284 283 284 283 283 282 282 281 278 277 277 277 276 276 278 278 278 277 275 273 271 269 266
307 305 302 300 298 296 295 294 294 293 291 290 288 285 284 284 285 285 285 286 286 287 288 289 291 293 296 297 299 300 300 299 298 296 295 296 296 298 300 302 305 308 309 311 313 315 316 318 320 321 321 318 314 310 302 294 288 284 282 282 282 282 283 283 284 283 283 282 281 281 279 283 285 282 282 280 278 278 275 273 272 270 268 267 266
307 307 305 303 300 298 297 293 293 290 289 289 286 284 284 285 285 284 285 286 287 289 291 294 295 297 298 299 301 302 301 300 299 299 301 305 308 310 312 314 317 319 321 322 325 327 328 330 333 332 329 324 316 307 298 291 287 285 283 280 278 278 278 280 282 282 283 281 280 281 283 290 292 290 288 283 279 278 275 273 273 272 270 266 264
309 310 309 308 304 301 298 292 290 290 292 292 289 287 289 290 288 288 289 289 291 293 295 296 295 296 298 300 303 304 304 303 306 311 317 322 323 325 328 331 335 335 336 336 338 342 341 342 343 339 334 325 316 307 299 295 292 290 285 282 280 277 277 278 278 278 279 281 282 282 287 295 298 297 296 291 288 286 285 283 280 277 272 267 264
313 314 314 311 305 301 297 291 287 289 291 291 294 296 295 293 292 292 293 294 295 297 296 294 294 295 297 301 305 307 310 314 321 327 330 334 336 340 344 346 349 349 348 347 350 352 352 352 350 344 336 327 318 309 303 299 295 292 287 286 284 280 278 276 275 277 278 279 282 284 290 297 299 303 304 301 299 297 296 295 290 283 276 269 265
315 317 317 312 306 302 297 292 288 287 286 288 293 295 293 293 294 294 294 297 297 297 295 294 294 297 301 307 311 315 319 327 332 335 336 339 343 346 350 352 353 353 354 357 359 359 359 355 348 340 333 325 317 309 303 300 298 294 291 289 284 282 279 274 274 278 278 279 282 284 289 296 299 304 307 304 303 304 303 301 298 292 284 275 270
317 318 315 310 307 304 299 294 290 288 288 289 291 292 293 295 298 299 300 299 298 296 296 296 298 303 310 314 318 323 329 336 338 340 341 343 347 350 352 353 357 1 3 3 0 356 350 343 336 329 323 317 310 304 300 298 296 294 293 293 290 289 285 279 279 281 282 280 278 279 283 288 292 297 299 299 301 302 301 302 299 295 293 288 279
317 315 312 309 307 303 299 293 290 291 293 293 292 294 298 302 303 304 304 301 299 298 300 302 304 310 315 319 326 335 340 344 346 346 346 347 351 353 356 360 5 5 0 355 349 344 338 332 327 323 319 313 306 301 298 295 293 293 293 296 298 298 296 291 289 291 286 279 275 276 280 284 288 289 289 291 296 297 296 297 296 296 303 310 303
314 313 311 308 306 302 297 292 290 294 295 295 293 295 301 306 305 303 303 303 302 301 305 307 309 313 318 328 338 344 349 350 348 346 346 349 353 357 0 1 360 353 346 342 339 335 331 327 324 322 321 317 311 306 302 297 294 294 295 297 299 300 302 301 300 295 282 278 283 283 284 286 289 289 288 291 295 297 297 299 302 306 312 319 321
312 311 310 307 306 301 296 290 291 294 293 294 295 296 303 306 305 304 307 309 307 304 311 312 313 319 327 340 347 351 353 352 346 345 350 353 357 358 355 351 346 340 337 336 334 331 328 326 325 328 329 328 326 323 317 309 301 295 295 296 298 299 301 300 299 292 283 284 290 284 284 287 289 291 292 295 299 300 303 308 311 315 319 323 325
309 308 308 307 304 300 295 288 287 287 286 291 296 300 305 306 307 309 310 314 311 309 320 318 322 332 341 352 357 2 5 3 357 355 358 358 355 349 343 340 337 333 333 334 332 330 329 329 332 339 343 345 344 340 336 328 317 305 301 299 302 304 301 296 295 290 286 291 292 287 288 287 290 296 300 306 308 305 307 314 318 318 322 327 330
306 307 306 304 301 299 297 289 283 281 284 289 296 302 304 305 308 311 312 314 313 320 332 326 339 353 2 13 20 29 28 21 9 1 356 349 342 335 334 333 332 331 332 332 331 331 331 333 339 347 350 353 352 348 346 346 337 326 320 317 320 324 319 310 303 292 288 292 295 294 295 294 299 302 306 313 314 312 312 317 319 320 328 337 340
304 306 305 302 299 300 299 295 289 287 294 299 303 306 303 303 307 311 317 319 321 344 359 344 10 29 40 47 46 43 32 16 0 351 342 336 332 331 332 333 332 331 332 332 331 333 333 336 342 347 348 353 355 352 355 356 351 344 342 340 345 348 346 338 326 310 296 297 301 305 305 300 303 304 310 318 321 322 323 330 336 343 357 11 17
302 302 300 300 301 300 300 300 298 299 308 311 313 314 311 309 312 318 324 335 349 20 31 27 47 58 60 54 42 33 16 359 345 337 333 332 332 333 335 334 334 332 333 334 335 336 335 336 339 340 340 346 351 353 1 4 359 354 355 354 355 356 354 352 346 343 324 312 315 324 320 312 313 316 331 351 356 359 358 6 15 19 24 29 33
299 297 296 299 302 301 303 304 303 306 312 318 321 324 325 320 320 325 337 4 30 52 58 54 56 54 47 35 25 16 360 347 336 334 333 334 335 336 337 335 334 333 335 336 337 338 336 336 332 328 326 332 341 347 359 7 1 353 0 2 360 358 354 352 349 349 343 335 337 346 354 356 3 10 21 31 30 29 23 23 26 24 24 29 34
296 295 296 299 300 300 308 309 308 314 318 323 328 333 335 331 335 350 22 51 64 67 62 53 46 37 28 19 9 359 348 341 335 334 334 336 336 337 337 334 331 332 335 337 339 339 338 334 327 320 314 315 325 334 347 4 358 348 356 6 4 4 359 356 353 350 345 342 348 355 7 14 17 17 17 17 17 24 23 18 20 20 19 21 26
294 295 297 297 297 302 313 315 318 323 323 319 323 332 335 339 355 33 64 75 72 63 54 43 35 25 15 6 356 349 343 339 336 335 336 337 335 334 333 330 329 330 335 337 337 338 336 332 325 318 311 305 308 315 328 348 350 336 344 356 359 359 1 5 359 354 346 346 353 355 2 7 3 1 1 2 5 15 19 14 12 11 10 10 11
294 296 298 296 297 308 319 326 330 331 323 316 321 332 333 350 42 79 83 76 64 53 43 34 26 16 8 359 350 345 343 341 339 337 336 334 332 330 329 328 328 330 334 336 336 334 331 327 324 319 313 305 299 294 297 320 329 320 327 336 338 336 348 5 360 351 344 346 353 355 357 356 345 344 348 351 351 354 355 355 355 351 352 352 352
295 295 296 295 300 313 324 331 338 339 329 325 332 341 344 84 102 97 84 68 53 35 25 22 18 11 3 354 346 343 341 341 340 337 333 331 330 327 327 328 328 332 338 341 338 335 331 327 324 320 314 307 301 293 286 298 307 301 300 305 310 311 320 337 334 331 332 336 340 340 339 329 322 324 326 331 332 331 329 329 328 327 328 329 328
292 294 292 292 299 313 327 331 340 344 326 329 351 50 116 122 113 100 81 60 37 18 15 14 10 4 355 348 343 339 337 338 339 336 331 329 329 327 328 330 332 338 345 346 341 338 336 332 328 323 317 308 301 297 292 288 286 285 282 277 280 285 293 301 304 309 309 306 305 302 298 294 294 298 301 305 306 306 307 310 312 313 314 316 316
290 300 298 294 298 310 324 328 333 333 315 351 112 134 136 130 121 103 73 45 23 11 7 4 1 356 349 344 339 335 333 334 336 334 332 331 332 331 332 335 338 342 345 345 341 338 335 334 331 327 324 316 306 297 290 283 273 270 271 269 265 270 279 286 284 284 283 284 283 282 282 284 286 289 292 293 295 297 299 302 304 306 308 309 309
294 310 302 293 298 304 317 327 324 339 101 137 142 142 139 135 124 93 54 29 15 5 359 356 354 352 347 342 335 331 331 332 334 336 337 337 336 335 335 337 338 340 340 339 337 334 333 332 330 327 325 322 316 306 294 283 272 264 262 263 264 267 273 277 278 276 274 275 278 279 280 283 287 290 291 292 295 297 299 300 300 300 299 299 298
294 302 289 288 299 303 318 330 315 355 144 146 145 146 145 140 116 64 34 15 7 360 354 351 351 351 345 338 332 330 330 332 335 336 337 336 335 334 333 334 335 335 334 333 333 333 334 332 329 325 322 321 319 315 305 292 279 269 262 261 262 263 267 271 276 276 274 276 278 283 286 288 291 293 294 293 293 293 294 293 293 293 292 292 293
289 297 287 290 302 306 314 298 301 141 147 146 148 150 150 138 94 39 15 5 2 356 352 349 347 345 339 334 330 329 330 332 333 334 333 331 331 329 328 328 328 330 330 331 333 335 336 334 330 327 324 322 320 316 312 303 289 278 271 267 263 261 262 267 273 274 273 277 280 284 288 290 291 291 291 290 289 288 287 288 289 290 292 293 293
278 290 285 289 298 303 299 290 129 141 148 150 154 153 150 132 75 20 3 360 358 353 348 344 339 336 333 331 330 331 332 332 332 331 329 327 326 323 322 323 326 329 332 334 337 339 340 340 338 336 335 331 328 322 316 308 299 292 286 279 270 265 264 266 271 273 273 276 278 281 283 284 284 285 285 285 286 286 286 287 288 289 290 291 292
265 266 270 281 291 295 293 310 127 144 149 153 159 158 153 135 64 3 356 353 351 346 341 336 333 332 331 331 332 333 332 330 328 325 323 321 319 319 321 325 330 334 338 343 346 349 353 356 358 356 354 350 347 345 337 326 313 305 301 296 286 278 272 271 273 275 276 276 277 277 277 277 278 279 281 282 285 287 288 288 289 290 291 292 292
264 265 271 277 285 296 313 79 129 144 152 159 164 165 161 151 358 344 344 344 342 338 336 334 333 332 331 331 332 331 328 324 321 320 319 318 318 321 326 333 339 344 348 353 356 1 7 12 13 12 12 10 11 13 9 2 347 328 317 311 305 297 292 287 285 286 284 282 280 279 277 277 277 278 280 282 284 287 289 292 294 295 297 297 298
279 278 280 286 295 309 348 95 137 146 161 168 172 174 175 196 313 327 332 336 336 334 335 335 333 332 330 330 328 326 323 320 320 320 320 320 324 330 339 346 351 355 357 359 2 8 15 19 20 20 19 20 21 24 25 24 19 10 356 339 327 316 311 307 302 300 298 296 292 289 287 286 285 286 287 289 291 293 296 299 300 301 302 302 302
278 276 279 288 295 295 289 195 170 166 173 176 179 183 190 235 294 314 324 330 331 332 334 333 331 330 329 327 325 322 321 321 321 322 323 326 334 343 351 356 359 1 360 1 4 10 18 24 26 24 23 26 26 26 27 27 24 23 21 15 5 351 341 332 325 320 316 315 312 310 309 307 305 303 302 304 305 305 306 307 307 307 307 307 308
276 282 287 291 290 286 268 205 191 182 180 182 187 193 210 251 287 308 319 326 328 331 331 330 330 328 327 324 323 323 323 323 323 324 328 335 345 354 357 359 359 359 360 2 4 7 16 25 30 28 26 29 30 30 29 29 24 21 22 21 18 12 3 355 347 341 336 333 330 328 326 324 322 318 316 314 313 313 312 312 311 310 310 310 309
292 300 297 290 285 279 258 204 189 184 182 188 196 206 229 262 291 310 318 323 327 328 328 328 328 326 324 323 324 325 324 324 324 327 335 345 354 358 357 356 354 353 357 3 5 7 13 19 25 28 27 26 30 31 29 30 28 23 20 18 15 12 5 359 353 347 342 338 335 333 331 328 326 323 321 317 315 314 313 313 312 311 311 310 309
298 302 292 285 278 268 251 202 186 185 187 195 206 220 244 275 300 312 316 320 325 326 327 327 326 324 323 324 326 326 325 324 325 333 344 352 356 355 353 350 349 352 358 5 7 9 12 16 21 27 28 25 27 28 26 24 23 22 19 15 12 9 5 0 356 350 346 343 340 338 335 334 333 330 326 322 320 319 317 317 316 315 314 313 311
294 294 285 279 271 262 250 206 187 188 194 204 216 232 259 286 301 307 312 318 323 324 325 325 323 322 324 326 326 324 323 323 328 338 349 352 352 351 349 347 349 356 0 9 15 16 17 20 24 30 32 30 29 29 27 22 19 19 19 19 19 18 16 13 10 7 3 0 356 352 350 347 344 339 335 330 327 323 321 319 317 315 313 311 309
288 288 283 276 268 263 249 213 191 191 200 210 223 243 267 286 294 301 310 318 322 324 324 322 321 323 326 326 325 323 322 325 332 341 348 349 349 350 349 350 356 3 9 16 25 30 33 36 36 37 39 40 40 40 37 34 32 31 31 32 34 34 34 30 25 20 15 10 4 358 354 348 343 338 333 329 325 323 320 318 316 315 313 312 312
287 288 286 276 267 260 242 214 196 197 205 215 230 250 269 282 290 301 312 319 322 323 322 320 323 326 328 326 324 323 324 330 337 341 346 349 354 357 357 2 11 18 25 32 41 48 52 53 51 49 50 52 55 55 54 53 50 46 42 40 37 36 33 29 24 19 13 6 359 353 347 342 338 334 331 329 326 325 323 322 320 319 318 317 317
290 289 283 270 259 248 231 209 200 204 210 221 237 254 270 280 291 304 315 320 322 322 321 323 327 329 327 325 325 325 329 336 340 344 351 358 6 12 17 25 39 49 52 52 55 57 57 58 57 56 56 57 58 58 57 56 53 49 45 40 36 32 27 23 18 12 6 359 353 348 343 339 336 334 332 329 327 325 323 322 321 319 318 317 316
289 285 270 255 248 239 224 206 202 208 216 229 245 260 272 282 297 311 318 320 321 323 325 328 330 328 326 326 326 328 335 344 349 354 2 16 26 37 53 64 70 72 67 60 55 55 56 58 60 60 59 59 58 56 54 52 50 47 43 38 32 26 19 13 8 2 356 351 347 342 339 336 334 332 330 327 325 323 321 320 318 316 314 313 312
289 282 262 248 240 231 220 207 206 214 224 238 253 265 276 291 307 315 316 317 322 326 330 331 329 327 327 328 328 333 345 360 8 13 22 39 57 74 83 81 75 71 69 66 61 59 60 63 65 65 65 64 61 58 53 48 45 41 35 28 21 14 8 3 358 354 349 344 341 338 335 333 331 330 328 326 323 321 320 318 316 315 313 311 310
293 285 264 248 237 226 217 212 214 222 233 246 259 270 284 301 309 310 312 317 324 329 331 330 329 329 329 328 330 345 8 25 31 38 58 79 91 94 89 82 74 70 71 74 74 73 72 72 72 71 69 64 59 53 46 39 33 27 21 14 8 3 359 356 352 348 345 341 339 336 333 331 330 329 326 324 322 320 319 317 316 314 313 312 310
292 281 264 245 231 224 220 220 224 231 241 253 263 276 291 302 303 303 311 319 325 330 330 330 331 330 328 330 345 16 37 50 62 78 89 94 95 94 91 87 83 79 78 80 81 80 77 75 70 65 59 53 47 40 32 26 20 15 11 7 2 358 355 352 349 346 343 340 337 334 331 330 328 327 325 323 322 320 319 318 317 316 315 314 313
283 273 260 240 227 226 229 229 233 240 249 260 269 281 293 296 297 303 314 320 325 329 330 332 333 330 332 357 30 52 65 77 88 93 92 91 90 91 91 90 88 84 82 78 74 71 67 63 57 52 47 42 37 31 26 20 15 10 6 3 359 355 352 349 346 343 340 337 334 331 329 327 326 325 324 323 322 322 322 322 322 321 319 318 317
274 267 257 242 230 231 235 236 240 247 256 264 271 282 290 291 294 306 314 319 325 329 331 334 333 337 19 64 74 81 87 92 95 93 89 87 85 84 84 83 82 80 77 71 65 60 56 51 47 43 39 35 31 26 21 15 11 6 1 357 354 350 347 344 342 340 337 335 332 329 327 325 323 323 323 324 325 326 326 326 325 324 323 322 322
271 267 262 252 241 239 242 243 245 250 257 262 271 283 286 287 296 308 313 319 324 327 331 333 341 47 85 93 95 95 96 97 95 90 86 83 79 77 75 74 74 73 70 65 59 54 50 45 40 36 32 29 24 18 13 8 4 360 355 352 350 347 344 342 340 338 336 334 330 327 325 323 323 325 327 329 329 329 329 329 328 328 327 326 325
271 265 262 258 249 245 247 247 246 249 254 260 273 283 282 286 298 306 310 318 323 326 330 337 64 102 104 103 101 99 98 96 92 87 82 78 75 71 69 67 67 66 65 61 57 52 46 39 32 26 22 17 13 7 4 1 358 354 351 349 347 345 342 340 337 335 333 331 329 328 327 327 328 329 331 331 331 332 332 332 332 332 330 329 328
268 260 257 256 251 246 247 246 244 245 251 264 276 278 276 284 293 298 307 317 319 323 325 58 117 115 111 105 101 99 97 94 89 85 81 76 71 67 63 60 57 56 54 51 49 45 39 33 24 15 9 6 2 360 357 355 353 350 348 346 344 342 339 336 334 332 332 331 331 331 331 331 330 330 332 333 333 334 334 335 335 334 333 331 330
263 258 253 252 251 247 246 244 241 243 252 266 272 267 267 275 281 289 303 312 311 309 280 150 131 122 113 105 102 100 97 93 87 82 77 71 67 62 56 49 43 40 37 32 28 25 20 16 11 4 359 357 356 354 353 351 349 346 344 342 341 339 337 336 336 335 335 335 334 333 333 332 332 332 333 334 335 335 335 335 335 335 334 333 332
259 255 251 249 248 245 244 242 240 243 253 263 264 256 256 260 263 276 289 295 296 282 205 162 144 128 115 108 105 102 97 89 81 73 68 63 57 52 45 35 26 20 17 13 9 6 3 359 356 353 350 351 352 352 351 350 347 344 342 341 341 341 340 340 339 338 337 336 335 335 336 337 336 336 336 336 336 335 335 335 335 335 334 333 333
256 250 248 246 245 242 239 238 237 242 252 259 254 246 245 245 246 255 263 271 275 250 199 173 154 134 120 112 110 104 94 82 71 62 54 47 40 33 25 17 9 4 2 359 357 356 355 351 348 346 346 349 351 351 351 349 347 344 343 343 343 342 341 340 338 338 337 337 336 337 338 339 339 338 338 337 337 336 336 336 336 336 335 334 333
Height
5859 5859 5855 5850 5849 5848 5846 5845 5843 5843 5842 5841 5840 5839 5838 5838 5837 5836 5835 5835 5834 5833 5833 5832 5832 5831 5830 5829 5828 5827 5827 5827 5826 5825 5824 5824 5823 5822 5821 5820 5820 5819 5819 5818 5817 5817 5816 5816 5816 5814 5814 5814 5814 5813 5813 5813 5813 5813 5813 5812 5812 5812 5812 5812 5811 5810 5810 5809 5808 5807 5806 5805 5806 5807 5808 5808 5808 5808 5808 5807 5807 5808 5808 5809 5810
5858 5857 5853 5849 5848 5846 5844 5843 5841 5840 5840 5839 5839 5838 5837 5836 5835 5834 5833 5833 5832 5832 5831 5830 5830 5829 5829 5828 5826 5826 5825 5825 5824 5823 5822 5822 5821 5820 5820 5819 5818 5817 5817 5816 5815 5815 5815 5815 5814 5813 5813 5813 5812 5812 5812 5812 5812 5811 5811 5811 5811 5811 5810 5810 5809 5809 5808 5807 5806 5805 5804 5804 5805 5805 5806 5806 5806 5805 5805 5806 5806 5807 5807 5808 5808
5856 5855 5851 5848 5847 5845 5843 5841 5839 5839 5838 5837 5837 5836 5834 5834 5833 5832 5831 5831 5830 5830 5829 5828 5828 5827 5827 5826 5825 5824 5823 5823 5822 5821 5821 5820 5820 5819 5818 5818 5817 5816 5816 5815 5814 5814 5814 5813 5813 5812 5812 5812 5812 5811 5811 5810 5810 5810 5810 5810 5810 5809 5809 5808 5808 5807 5806 5806 5805 5804 5802 5801 5803 5804 5804 5805 5805 5805 5805 5806 5806 5806 5806 5807 5807
5853 5852 5849 5846 5844 5843 5841 5839 5838 5837 5836 5836 5835 5833 5832 5831 5831 5830 5829 5829 5828 5828 5827 5826 5826 5825 5825 5824 5823 5823 5822 5821 5820 5820 5819 5819 5818 5818 5817 5817 5816 5816 5815 5814 5814 5813 5813 5812 5812 5811 5811 5811 5810 5810 5810 5809 5809 5808 5808 5808 5808 5808 5807 5807 5806 5805 5805 5805 5804 5803 5800 5800 5803 5803 5803 5804 5804 5805 5806 5805 5805 5805 5805 5805 5805
5850 5848 5846 5844 5842 5841 5840 5838 5837 5836 5835 5834 5832 5831 5830 5829 5829 5828 5828 5827 5826 5826 5825 5824 5824 5823 5823 5822 5822 5821 5820 5819 5819 5818 5818 5818 5817 5817 5816 5816 5815 5815 5814 5814 5813 5813 5812 5811 5811 5810 5810 5810 5809 5809 5808 5808 5807 5807 5807 5807 5806 5806 5806 5805 5805 5804 5804 5803 5802 5801 5799 5799 5801 5802 5802 5803 5803 5803 5803 5803 5803 5803 5803 5803 5803
5847 5845 5844 5842 5840 5839 5838 5836 5835 5834 5832 5831 5830 5829 5828 5828 5827 5827 5826 5825 5825 5824 5824 5823 5822 5822 5821 5821 5820 5819 5818 5817 5817 5817 5817 5817 5816 5816 5815 5815 5814 5814 5813 5813 5812 5811 5811 5810 5810 5809 5809 5808 5808 5807 5807 5806 5806 5806 5806 5805 5805 5805 5804 5804 5803 5803 5802 5801 5801 5801 5799 5799 5800 5800 5801 5800 5801 5801 5801 5801 5801 5801 5801 5801 5801
5844 5843 5841 5840 5838 5837 5835 5835 5833 5831 5830 5829 5828 5828 5828 5828 5827 5826 5826 5825 5824 5824 5823 5822 5821 5820 5820 5819 5819 5818 5817 5816 5816 5816 5816 5816 5815 5815 5814 5814 5813 5813 5812 5811 5811 5810 5810 5809 5809 5808 5808 5807 5807 5806 5806 5805 5805 5805 5805 5804 5804 5803 5803 5802 5802 5801 5801 5800 5800 5800 5798 5798 5799 5799 5799 5799 5799 5799 5799 5800 5799 5799 5799 5799 5799
5842 5841 5839 5838 5836 5834 5833 5833 5832 5831 5830 5828 5827 5826 5827 5826 5826 5825 5825 5824 5824 5823 5822 5821 5820 5819 5819 5818 5817 5816 5816 5816 5816 5815 5815 5814 5814 5813 5813 5812 5812 5812 5811 5811 5810 5810 5809 5809 5808 5808 5807 5806 5806 5805 5805 5804 5804 5804 5803 5803 5802 5802 5802 5801 5800 5800 5800 5799 5799 5798 5797 5798 5798 5798 5798 5797 5797 5797 5798 5798 5797 5797 5797 5797 5797
5840 5839 5837 5836 5834 5833 5832 5831 5830 5830 5830 5828 5825 5824 5824 5824 5824 5823 5823 5823 5822 5821 5820 5820 5819 5818 5818 5817 5816 5816 5815 5815 5815 5814 5814 5813 5813 5812 5812 5812 5811 5811 5810 5810 5810 5809 5809 5808 5808 5807 5806 5806 5805 5804 5804 5803 5803 5802 5802 5802 5801 5801 5801 5800 5799 5799 5799 5798 5798 5797 5797 5796 5796 5796 5796 5796 5795 5795 5796 5796 5795 5795 5795 5795 5795
5839 5837 5835 5833 5832 5831 5830 5829 5828 5827 5827 5826 5824 5823 5823 5823 5823 5822 5822 5821 5821 5820 5819 5819 5818 5818 5817 5816 5816 5815 5815 5814 5814 5814 5813 5812 5812 5812 5811 5811 5811 5810 5810 5809 5809 5809 5808 5808 5807 5806 5806 5805 5804 5803 5803 5802 5802 5801 5801 5801 5800 5800 5800 5799 5798 5798 5798 5797 5796 5796 5795 5795 5795 5795 5795 5794 5794 5794 5793 5794 5794 5794 5794 5794 5794
5837 5836 5833 5831 5830 5829 5828 5827 5826 5826 5825 5824 5823 5822 5822 5822 5822 5822 5821 5820 5819 5819 5819 5818 5818 5817 5816 5816 5815 5815 5814 5814 5813 5813 5812 5812 5812 5811 5811 5811 5810 5810 5809 5809 5809 5808 5808 5807 5806 5806 5805 5804 5803 5802 5802 5801 5801 5800 5800 5800 5800 5799 5799 5799 5798 5798 5797 5795 5795 5794 5794 5794 5793 5793 5793 5793 5793 5792 5792 5793 5793 5793 5792 5792 5792
5835 5833 5831 5829 5828 5827 5826 5825 5825 5824 5824 5823 5822 5822 5821 5822 5822 5821 5820 5819 5818 5818 5818 5818 5817 5817 5816 5815 5815 5814 5814 5813 5813 5812 5812 5811 5811 5811 5810 5810 5810 5809 5809 5808 5808 5807 5807 5806 5805 5804 5803 5803 5802 5801 5800 5800 5800 5799 5799 5799 5799 5798 5798 5798 5798 5797 5794 5793 5794 5794 5793 5793 5792 5792 5792 5792 5792 5792 5792 5792 5792 5792 5791 5791 5791
5833 5832 5830 5827 5827 5826 5824 5823 5823 5823 5822 5822 5821 5821 5821 5821 5821 5820 5819 5818 5818 5818 5818 5817 5817 5816 5815 5815 5814 5814 5813 5813 5812 5812 5811 5811 5811 5810 5810 5810 5809 5809 5808 5808 5807 5806 5806 5805 5804 5803 5802 5801 5801 5800 5799 5799 5799 5798 5798 5798 5798 5797 5797 5797 5798 5796 5791 5792 5795 5793 5793 5792 5791 5791 5792 5792 5792 5791 5791 5791 5791 5791 5791 5790 5790
5831 5830 5829 5826 5825 5824 5823 5823 5822 5822 5822 5821 5821 5821 5821 5820 5819 5819 5818 5818 5818 5817 5817 5817 5816 5816 5815 5815 5814 5813 5813 5812 5812 5811 5811 5811 5810 5810 5810 5809 5808 5808 5807 5807 5806 5805 5804 5803 5803 5802 5801 5800 5800 5799 5798 5798 5798 5797 5797 5797 5797 5796 5796 5796 5797 5795 5790 5792 5794 5793 5792 5792 5791 5791 5791 5791 5791 5791 5791 5791 5791 5790 5790 5789 5789
5829 5828 5827 5826 5823 5822 5822 5822 5821 5821 5821 5821 5821 5820 5820 5819 5819 5818 5818 5817 5818 5817 5817 5817 5816 5815 5815 5814 5814 5813 5813 5812 5812 5811 5811 5810 5810 5810 5809 5808 5808 5807 5806 5806 5805 5804 5803 5802 5802 5801 5800 5800 5799 5798 5798 5797 5797 5797 5796 5796 5796 5795 5795 5795 5795 5794 5791 5790 5792 5792 5792 5791 5791 5791 5791 5791 5791 5790 5790 5790 5790 5790 5789 5789 5789
5827 5826 5825 5824 5823 5821 5820 5820 5820 5820 5820 5820 5820 5820 5819 5819 5818 5818 5817 5817 5817 5816 5817 5817 5816 5815 5815 5814 5813 5813 5812 5812 5812 5811 5811 5810 5810 5809 5808 5808 5807 5806 5806 5805 5804 5804 5803 5802 5801 5800 5800 5799 5799 5798 5797 5797 5797 5796 5796 5795 5795 5795 5795 5794 5794 5794 5792 5790 5790 5792 5791 5790 5790 5790 5790 5790 5790 5790 5789 5789 5789 5789 5789 5788 5788
5825 5824 5823 5822 5821 5821 5820 5819 5819 5819 5819 5819 5819 5819 5818 5818 5818 5817 5817 5816 5816 5816 5816 5816 5815 5815 5815 5814 5813 5813 5812 5812 5812 5811 5810 5810 5809 5808 5807 5807 5806 5805 5805 5804 5803 5803 5802 5801 5800 5800 5799 5799 5798 5797 5797 5797 5796 5796 5795 5795 5795 5795 5794 5794 5793 5793 5792 5791 5790 5791 5791 5790 5790 5790 5790 5790 5790 5790 5789 5789 5788 5788 5788 5788 5788
5823 5822 5821 5821 5820 5820 5820 5819 5818 5818 5818 5818 5818 5818 5818 5818 5817 5817 5816 5816 5816 5816 5816 5816 5815 5815 5815 5814 5813 5813 5812 5812 5811 5811 5810 5809 5808 5808 5807 5806 5805 5805 5804 5803 5803 5802 5801 5801 5800 5799 5799 5798 5798 5797 5797 5797 5796 5795 5795 5795 5795 5794 5794 5794 5793 5792 5792 5791 5791 5791 5791 5790 5790 5790 5790 5790 5790 5789 5789 5789 5788 5788 5787 5787 5788
5821 5820 5820 5820 5819 5819 5819 5818 5818 5818 5818 5817 5818 5818 5818 5817 5817 5816 5816 5816 5816 5816 5816 5816 5815 5815 5815 5814 5813 5813 5812 5812 5811 5811 5810 5809 5808 5807 5807 5806 5805 5804 5804 5803 5802 5801 5801 5800 5799 5799 5799 5798 5797 5797 5797 5796 5796 5795 5795 5795 5794 5794 5794 5793 5793 5792 5792 5791 5791 5791 5791 5791 5790 5790 5790 5789 5789 5789 5789 5788 5788 5788 5787 5787 5787
5820 5819 5819 5819 5819 5819 5818 5818 5817 5817 5817 5817 5818 5818 5817 5817 5816 5816 5816 5816 5816 5816 5816 5816 5815 5815 5815 5814 5813 5813 5812 5812 5811 5810 5810 5809 5808 5807 5806 5805 5805 5804 5803 5802 5802 5801 5800 5799 5799 5798 5798 5798 5797 5797 5796 5796 5796 5795 5795 5794 5794 5794 5793 5793 5793 5792 5792 5791 5791 5791 5791 5790 5790 5790 5790 5789 5789 5789 5789 5788 5788 5788 5788 5787 5787
5819 5819 5818 5818 5818 5818 5818 5818 5817 5817 5817 5817 5818 5818 5817 5817 5817 5817 5817 5816 5816 5816 5816 5816 5816 5815 5815 5814 5813 5813 5812 5812 5811 5810 5809 5809 5808 5807 5806 5805 5804 5804 5803 5802 5801 5800 5799 5799 5798 5798 5797 5797 5797 5796 5796 5795 5795 5795 5794 5794 5794 5793 5793 5793 5793 5792 5792 5791 5791 5791 5790 5790 5790 5790 5789 5789 5789 5789 5789 5789 5788 5788 5788 5788 5787
5818 5818 5818 5818 5818 5818 5818 5817 5817 5817 5817 5818 5818 5818 5817 5817 5817 5817 5817 5816 5816 5816 5816 5816 5816 5815 5815 5814 5813 5813 5812 5811 5811 5810 5809 5808 5807 5806 5806 5805 5804 5803 5803 5802 5801 5800 5799 5798 5797 5797 5797 5796 5796 5795 5795 5795 5795 5794 5794 5794 5793 5792 5792 5792 5792 5792 5792 5791 5791 5791 5790 5790 5790 5789 5789 5789 5789 5789 5789 5789 5788 5788 5788 5788 5787
5818 5818 5818 5817 5817 5817 5817 5817 5817 5817 5817 5817 5817 5818 5817 5817 5817 5817 5817 5816 5816 5816 5816 5816 5816 5815 5815 5814 5813 5812 5812 5811 5810 5810 5809 5808 5807 5806 5805 5804 5803 5803 5802 5801 5800 5799 5798 5797 5797 5796 5796 5796 5795 5795 5795 5794 5794 5794 5794 5793 5793 5792 5791 5792 5792 5792 5791 5791 5791 5790 5790 5790 5789 5789 5789 5789 5789 5789 5789 5789 5788 5788 5788 5787 5787
5818 5818 5817 5817 5817 5817 5817 5817 5817 5817 5817 5817 5817 5817 5818 5817 5817 5817 5817 5817 5817 5817 5816 5816 5816 5815 5815 5814 5813 5812 5811 5811 5810 5809 5808 5807 5807 5806 5805 5804 5803 5802 5802 5801 5800 5799 5798 5797 5796 5795 5795 5795 5794 5794 5794 5793 5793 5793 5793 5792 5792 5791 5791 5791 5791 5791 5791 5790 5790 5790 5790 5790 5789 5789 5789 5789 5789 5789 5789 5788 5788 5788 5787 5787 5786
5818 5818 5817 5816 5817 5817 5817 5817 5817 5817 5817 5817 5817 5818 5818 5817 5817 5817 5817 5817 5817 5817 5817 5816 5816 5815 5814 5813 5812 5812 5811 5810 5809 5809 5808 5807 5806 5805 5804 5803 5803 5802 5801 5800 5799 5798 5797 5797 5796 5795 5794 5794 5793 5793 5793 5792 5792 5792 5791 5791 5791 5791 5790 5790 5790 5791 5790 5790 5790 5789 5789 5789 5789 5789 5789 5788 5788 5788 5788 5787 5787 5787 5786 5786 5785
5817 5818 5817 5816 5817 5817 5817 5817 5817 5817 5817 5817 5818 5818 5818 5817 5817 5817 5817 5817 5817 5817 5817 5816 5816 5815 5814 5813 5812 5811 5810 5809 5809 5808 5807 5807 5806 5805 5804 5803 5802 5801 5800 5799 5799 5798 5797 5796 5795 5794 5794 5793 5793 5792 5792 5791 5791 5790 5790 5790 5790 5790 5790 5789 5789 5790 5790 5789 5789 5789 5789 5789 5789 5788 5788 5788 5787 5787 5786 5786 5785 5785 5784 5784 5783
5817 5817 5817 5816 5816 5816 5816 5816 5817 5817 5817 5818 5818 5818 5818 5817 5817 5818 5818 5818 5817 5817 5816 5815 5815 5814 5814 5813 5812 5811 5810 5809 5808 5808 5807 5806 5805 5804 5803 5802 5802 5801 5800 5799 5798 5797 5796 5795 5794 5793 5793 5792 5792 5792 5791 5790 5790 5789 5789 5789 5789 5789 5789 5788 5788 5789 5789 5789 5788 5788 5788 5788 5788 5787 5787 5786 5786 5785 5785 5784 5783 5783 5783 5782 5781
5816 5816 5816 5816 5815 5816 5816 5816 5817 5817 5817 5818 5818 5818 5817 5817 5818 5818 5818 5818 5817 5816 5816 5815 5814 5814 5813 5812 5811 5810 5810 5809 5808 5807 5806 5805 5804 5803 5803 5802 5801 5800 5799 5798 5797 5796 5795 5794 5793 5792 5792 5792 5791 5791 5790 5790 5789 5788 5788 5788 5788 5788 5787 5787 5787 5787 5788 5788 5788 5788 5787 5787 5786 5786 5785 5784 5784 5784 5783 5783 5782 5782 5781 5780 5779
5816 5815 5815 5815 5815 5815 5816 5816 5817 5817 5817 5818 5818 5818 5818 5818 5818 5818 5818 5818 5817 5817 5816 5815 5814 5813 5812 5812 5811 5810 5809 5808 5808 5807 5806 5805 5804 5803 5802 5801 5800 5799 5798 5797 5796 5795 5794 5793 5793 5792 5791 5791 5790 5790 5790 5789 5789 5788 5787 5787 5787 5787 5787 5786 5786 5786 5786 5787 5787 5787 5786 5786 5785 5784 5784 5783 5782 5781 5781 5781 5780 5780 5779 5778 5777
5815 5815 5815 5815 5815 5815 5815 5816 5817 5817 5817 5817 5817 5818 5818 5818 5819 5818 5818 5818 5817 5817 5816 5815 5814 5813 5812 5811 5810 5809 5809 5808 5807 5806 5805 5804 5803 5803 5802 5801 5800 5798 5797 5796 5795 5794 5794 5793 5792 5791 5791 5790 5790 5790 5789 5789 5788 5788 5787 5787 5786 5786 5786 5786 5785 5785 5785 5785 5785 5785 5785 5784 5784 5783 5782 5781 5781 5780 5779 5779 5778 5778 5777 5776 5776
5814 5815 5815 5815 5815 5815 5815 5816 5816 5817 5817 5817 5818 5818 5818 5818 5818 5818 5818 5818 5817 5816 5815 5814 5813 5812 5811 5811 5810 5809 5808 5807 5806 5805 5805 5804 5803 5802 5801 5800 5799 5798 5796 5795 5795 5794 5794 5793 5792 5791 5791 5790 5790 5789 5789 5788 5788 5788 5787 5787 5786 5786 5786 5785 5785 5784 5784 5784 5784 5784 5783 5783 5783 5782 5781 5780 5779 5779 5778 5777 5777 5776 5775 5775 5774
5814 5814 5814 5814 5815 5815 5815 5816 5816 5816 5817 5817 5818 5818 5818 5818 5818 5818 5818 5817 5817 5816 5815 5814 5813 5812 5811 5810 5809 5808 5807 5806 5805 5805 5804 5803 5803 5802 5800 5799 5798 5797 5796 5795 5795 5794 5794 5793 5792 5792 5791 5790 5790 5789 5789 5788 5788 5788 5788 5787 5787 5786 5786 5785 5785 5784 5784 5783 5783 5783 5783 5782 5782 5781 5780 5779 5778 5777 5777 5776 5775 5775 5774 5773 5772
5814 5814 5814 5814 5814 5815 5815 5816 5816 5816 5816 5817 5817 5818 5818 5818 5818 5818 5818 5817 5816 5815 5814 5813 5812 5811 5810 5809 5808 5807 5806 5806 5805 5805 5804 5803 5802 5801 5800 5799 5798 5797 5796 5795 5795 5794 5794 5793 5793 5792 5791 5790 5790 5789 5789 5789 5788 5788 5788 5787 5787 5786 5786 5785 5785 5784 5783 5783 5783 5782 5782 5781 5781 5780 5779 5778 5777 5776 5776 5775 5774 5773 5773 5772 5771
5813 5813 5814 5814 5814 5814 5815 5815 5815 5816 5816 5817 5817 5818 5818 5818 5818 5818 5817 5816 5815 5814 5813 5812 5811 5810 5810 5809 5808 5807 5806 5805 5805 5804 5804 5803 5802 5801 5800 5799 5798 5797 5796 5795 5795 5794 5793 5793 5793 5792 5791 5791 5790 5790 5789 5789 5789 5788 5788 5787 5787 5787 5786 5785 5785 5784 5783 5783 5782 5782 5781 5781 5780 5779 5779 5778 5777 5776 5775 5774 5773 5773 5772 5771 5771
5813 5813 5814 5814 5814 5814 5814 5815 5815 5815 5816 5817 5817 5818 5818 5818 5817 5817 5816 5816 5815 5814 5813 5812 5811 5810 5809 5808 5807 5807 5806 5805 5805 5804 5803 5802 5802 5801 5800 5799 5798 5797 5796 5795 5795 5794 5793 5793 5793 5792 5792 5791 5791 5790 5790 5789 5789 5788 5788 5788 5787 5787 5786 5785 5785 5784 5783 5783 5782 5782 5781 5780 5780 5779 5778 5777 5776 5775 5774 5774 5773 5772 5771 5770 5769
5813 5814 5814 5814 5813 5813 5814 5814 5815 5815 5816 5817 5817 5817 5817 5817 5817 5816 5816 5815 5814 5813 5812 5811 5810 5809 5809 5808 5807 5806 5806 5805 5804 5804 5803 5802 5802 5801 5800 5799 5798 5797 5796 5796 5795 5794 5794 5793 5793 5792 5792 5791 5791 5790 5790 5789 5789 5788 5788 5788 5787 5787 5786 5785 5785 5784 5783 5783 5782 5781 5780 5780 5779 5778 5777 5777 5776 5775 5774 5773 5772 5771 5770 5769 5768
5813 5814 5814 5813 5813 5813 5813 5814 5815 5815 5816 5816 5817 5817 5817 5817 5816 5816 5815 5814 5813 5812 5811 5810 5810 5809 5808 5808 5807 5806 5806 5805 5804 5803 5803 5802 5802 5801 5800 5799 5798 5797 5796 5796 5795 5795 5794 5793 5793 5792 5792 5791 5791 5791 5790 5789 5789 5788 5788 5787 5787 5786 5786 5785 5785 5784 5783 5782 5782 5781 5780 5779 5778 5777 5777 5776 5775 5774 5773 5772 5771 5770 5769 5768 5766
5813 5813 5813 5813 5813 5813 5813 5814 5814 5815 5816 5816 5816 5816 5816 5816 5816 5815 5815 5813 5812 5812 5811 5810 5809 5809 5808 5807 5807 5806 5805 5804 5804 5803 5803 5802 5801 5801 5800 5799 5798 5798 5797 5796 5796 5795 5795 5794 5793 5793 5792 5792 5791 5791 5790 5790 5789 5789 5788 5787 5787 5786 5786 5785 5785 5784 5783 5782 5782 5781 5780 5779 5778 5777 5776 5775 5774 5773 5772 5771 5769 5768 5767 5765 5764
5813 5813 5813 5813 5812 5812 5813 5813 5814 5815 5815 5816 5816 5816 5816 5816 5815 5815 5814 5813 5812 5811 5810 5810 5809 5808 5808 5807 5806 5806 5805 5804 5803 5803 5803 5802 5802 5801 5800 5799 5799 5798 5797 5796 5796 5795 5795 5794 5794 5793 5792 5792 5792 5791 5791 5790 5789 5789 5788 5788 5787 5786 5786 5785 5785 5784 5783 5782 5781 5780 5779 5778 5777 5776 5775 5774 5773 5772 5770 5769 5768 5766 5765 5763 5762
5812 5812 5812 5812 5812 5812 5812 5813 5814 5814 5815 5815 5815 5816 5815 5815 5815 5814 5813 5812 5811 5810 5810 5809 5809 5808 5808 5807 5806 5805 5805 5804 5803 5803 5802 5802 5802 5801 5800 5799 5799 5798 5797 5797 5796 5796 5795 5795 5794 5794 5793 5792 5792 5791 5791 5790 5790 5789 5789 5788 5788 5787 5786 5786 5785 5784 5783 5782 5781 5780 5779 5778 5777 5775 5774 5773 5772 5770 5769 5768 5766 5765 5763 5762 5760
5812 5812 5812 5812 5812 5812 5812 5813 5814 5814 5815 5815 5815 5815 5815 5814 5814 5813 5812 5811 5811 5810 5809 5809 5808 5808 5807 5806 5806 5805 5804 5804 5803 5803 5802 5802 5802 5801 5800 5800 5799 5798 5798 5797 5797 5796 5796 5795 5795 5795 5794 5793 5793 5792 5791 5791 5790 5790 5789 5788 5788 5787 5787 5786 5785 5784 5783 5782 5780 5779 5778 5777 5776 5774 5773 5772 5770 5769 5767 5766 5765 5763 5762 5760 5758
5812 5812 5811 5811 5811 5811 5812 5812 5813 5814 5814 5815 5815 5815 5814 5814 5813 5812 5812 5811 5810 5810 5809 5809 5808 5808 5807 5806 5805 5805 5804 5803 5803 5803 5803 5802 5802 5801 5801 5800 5799 5799 5798 5798 5798 5797 5797 5797 5796 5796 5795 5794 5793 5793 5792 5791 5791 5790 5789 5789 5788 5787 5786 5785 5785 5784 5782 5781 5780 5779 5777 5776 5775 5774 5772 5771 5769 5768 5766 5765 5763 5761 5760 5758 5756
5811 5811 5811 5811 5811 5811 5812 5812 5813 5814 5814 5814 5814 5814 5814 5813 5812 5812 5811 5810 5810 5809 5809 5808 5808 5807 5807 5806 5805 5804 5804 5803 5803 5803 5803 5802 5802 5802 5801 5800 5800 5800 5799 5799 5799 5798 5798 5798 5797 5796 5795 5795 5794 5793 5792 5792 5791 5790 5789 5789 5788 5787 5786 5785 5784 5783 5782 5781 5780 5778 5777 5775 5774 5773 5771 5769 5768 5766 5765 5763 5761 5759 5758 5756 5754
5811 5811 5811 5811 5811 5811 5812 5812 5813 5813 5813 5814 5814 5813 5813 5812 5812 5811 5810 5810 5810 5809 5809 5808 5808 5807 5806 5806 5805 5804 5804 5804 5804 5803 5803 5803 5802 5802 5802 5801 5801 5801 5800 5800 5799 5799 5798 5798 5797 5796 5796 5795 5794 5793 5792 5792 5791 5790 5789 5789 5788 5787 5786 5785 5784 5783 5782 5780 5779 5777 5776 5774 5773 5771 5770 5768 5766 5764 5762 5761 5759 5757 5755 5753 5751
5810 5810 5811 5811 5811 5811 5811 5812 5812 5813 5813 5813 5813 5812 5812 5812 5811 5811 5810 5810 5809 5809 5808 5808 5807 5807 5806 5806 5805 5805 5804 5804 5804 5803 5803 5803 5803 5802 5802 5802 5802 5801 5801 5800 5800 5799 5798 5798 5797 5796 5796 5795 5794 5793 5792 5792 5791 5790 5789 5788 5787 5786 5785 5784 5783 5782 5781 5779 5778 5776 5775 5773 5772 5770 5769 5767 5765 5762 5760 5758 5756 5754 5752 5750 5747
5809 5810 5810 5810 5811 5811 5811 5812 5812 5812 5812 5812 5812 5812 5811 5811 5810 5810 5810 5809 5809 5809 5808 5808 5807 5807 5806 5806 5805 5805 5805 5805 5804 5804 5804 5803 5803 5803 5802 5802 5802 5802 5801 5801 5800 5799 5798 5798 5797 5796 5796 5795 5794 5793 5792 5792 5791 5790 5788 5787 5786 5785 5784 5783 5781 5780 5779 5778 5777 5775 5773 5772 5770 5769 5767 5765 5763 5761 5758 5756 5754 5752 5749 5747 5744
5808 5809 5809 5809 5810 5810 5811 5811 5811 5811 5811 5811 5811 5811 5811 5810 5810 5809 5809 5809 5809 5808 5808 5808 5807 5807 5807 5806 5806 5806 5805 5805 5805 5804 5804 5804 5803 5803 5803 5802 5802 5802 5801 5801 5800 5799 5799 5798 5797 5796 5796 5795 5794 5793 5792 5791 5790 5789 5787 5786 5785 5784 5782 5781 5780 5779 5778 5777 5775 5774 5772 5770 5768 5766 5764 5762 5760 5758 5756 5754 5751 5749 5747 5744 5742
5807 5808 5808 5808 5809 5809 5810 5810 5810 5810 5810 5810 5810 5810 5810 5809 5809 5809 5809 5809 5808 5808 5808 5808 5807 5807 5807 5806 5806 5806 5806 5806 5805 5805 5805 5804 5804 5803 5803 5803 5802 5802 5802 5801 5801 5800 5799 5798 5797 5796 5796 5795 5794 5792 5791 5790 5789 5787 5786 5785 5784 5783 5781 5780 5779 5778 5777 5776 5774 5773 5771 5769 5766 5764 5763 5760 5758 5756 5753 5751 5748 5746 5743 5741 5738
5806 5807 5807 5807 5808 5808 5809 5809 5809 5809 5809 5809 5809 5809 5809 5809 5809 5809 5808 5808 5808 5808 5808 5808 5808 5807 5807 5807 5806 5806 5806 5806 5806 5805 5805 5805 5804 5804 5803 5803 5803 5802 5802 5801 5800 5800 5799 5798 5797 5796 5795 5794 5793 5792 5790 5789 5788 5786 5785 5784 5783 5782 5780 5779 5777 5776 5775 5774 5773 5772 5770 5768 5766 5764 5762 5759 5756 5754 5751 5748 5746 5743 5740 5737 5734
5805 5805 5806 5806 5807 5807 5808 5808 5808 5808 5809 5809 5809 5809 5809 5808 5808 5808 5808 5808 5808 5808 5808 5808 5808 5807 5807 5807 5807 5807 5806 5806 5806 5805 5805 5805 5804 5804 5804 5803 5803 5802 5802 5801 5800 5799 5798 5797 5796 5795 5794 5793 5792 5790 5789 5788 5787 5785 5784 5783 5781 5780 5778 5777 5775 5774 5773 5772 5771 5769 5768 5766 5764 5762 5759 5757 5754 5751 5749 5746 5743 5740 5736 5733 5730
5804 5804 5804 5805 5806 5806 5807 5807 5807 5807 5808 5808 5808 5808 5808 5808 5808 5808 5808 5808 5808 5808 5808 5808 5808 5807 5807 5807 5807 5807 5807 5806 5806 5806 5805 5805 5805 5804 5804 5803 5803 5802 5801 5800 5799 5798 5797 5796 5795 5794 5793 5791 5790 5788 5787 5786 5785 5783 5782 5780 5779 5777 5776 5775 5774 5772 5771 5769 5768 5767 5765 5763 5761 5759 5756 5753 5751 5748 5745 5743 5739 5736 5732 5729 5726